Time,TemperatureF,DewpointF,PressureIn,WindDirection,WindDirectionDegrees,WindSpeedMPH,WindSpeedGustMPH,Humidity,HourlyPrecipIn,Conditions,Clouds,dailyrainin,SoftwareType,DateUTC
2013-06-07 00:14:00,53.6,53.0,29.88,WSW,252,9.0,13.0,98,0.00,CLR,,0.00,WeatherDisplay:10.37,2013-06-07 07:14:00,
2013-06-07 00:29:00,53.6,53.0,29.91,WSW,247,9.0,12.0,98,0.00,CLR,,0.00,WeatherDisplay:10.37,2013-06-07 07:29:00,
2013-06-07 00:44:00,53.4,52.9,29.88,WSW,255,7.0,13.0,98,0.00,CLR,,0.00,WeatherDisplay:10.37,2013-06-07 07:44:00,
2013-06-07 00:59:00,53.4,52.9,29.88,WSW,251,10.0,14.0,98,0.00,CLR,,0.00,WeatherDisplay:10.37,2013-06-07 07:59:00,
2013-06-07 01:14:00,53.1,52.5,29.88,West,262,7.0,13.0,98,0.00,CLR,,0.00,WeatherDisplay:10.37,2013-06-07 08:14:00,
2013-06-07 01:29:00,53.2,52.7,29.88,WSW,252,8.0,12.0,98,0.00,CLR,,0.00,WeatherDisplay:10.37,2013-06-07 08:29:00,
2013-06-07 01:44:00,53.2,52.7,29.88,WSW,244,8.0,10.0,98,0.00,CLR,,0.00,WeatherDisplay:10.37,2013-06-07 08:44:00,
2013-06-07 01:59:00,53.2,52.7,29.85,West,263,6.0,11.0,98,0.00,CLR,,0.00,WeatherDisplay:10.37,2013-06-07 08:59:00,
2013-06-07 02:14:00,53.2,52.7,29.88,WSW,251,7.0,11.0,98,0.00,CLR,,0.00,WeatherDisplay:10.37,2013-06-07 09:14:00,
2013-06-07 02:29:00,53.2,52.7,29.85,WSW,242,7.0,12.0,98,0.00,CLR,,0.00,WeatherDisplay:10.37,2013-06-07 09:29:00,
2013-06-07 02:44:00,53.2,52.7,29.85,WSW,250,7.0,10.0,98,0.00,CLR,,0.00,WeatherDisplay:10.37,2013-06-07 09:44:00,
2013-06-07 02:59:00,53.1,52.5,29.85,WSW,244,6.0,12.0,98,0.00,CLR,,0.00,WeatherDisplay:10.37,2013-06-07 09:59:00,
2013-06-07 03:14:00,53.2,52.7,29.85,WSW,243,8.0,11.0,98,0.00,CLR,,0.00,WeatherDisplay:10.37,2013-06-07 10:14:00,
2013-06-07 03:29:00,53.2,52.6,29.85,WSW,240,7.0,12.0,98,0.00,CLR,,0.00,WeatherDisplay:10.37,2013-06-07 10:29:00,
2013-06-07 03:43:00,53.2,52.7,29.85,SW,219,5.0,10.0,98,0.00,CLR,,0.00,WeatherDisplay:10.37,2013-06-07 10:43:00,
2013-06-07 03:58:00,53.2,52.7,29.85,WSW,238,6.0,12.0,98,0.00,CLR,,0.00,WeatherDisplay:10.37,2013-06-07 10:58:00,
2013-06-07 04:13:00,53.2,52.7,29.85,WSW,239,7.0,12.0,98,0.00,CLR,,0.00,WeatherDisplay:10.37,2013-06-07 11:13:00,
2013-06-07 04:28:00,53.1,52.6,29.85,WSW,245,9.0,12.0,98,0.00,CLR,,0.00,WeatherDisplay:10.37,2013-06-07 11:28:00,
2013-06-07 04:43:00,53.2,52.7,29.85,SW,224,5.0,9.0,98,0.00,CLR,,0.00,WeatherDisplay:10.37,2013-06-07 11:43:00,
2013-06-07 04:58:00,53.2,52.7,29.85,SW,227,2.0,11.0,98,0.00,CLR,,0.00,WeatherDisplay:10.37,2013-06-07 11:58:00,
2013-06-07 05:13:00,53.2,52.7,29.85,SSW,208,5.0,7.0,98,0.00,CLR,,0.00,WeatherDisplay:10.37,2013-06-07 12:13:00,
2013-06-07 05:28:00,53.1,52.5,29.85,SW,232,7.0,9.0,98,0.00,CLR,,0.00,WeatherDisplay:10.37,2013-06-07 12:28:00,
2013-06-07 05:43:00,53.1,52.5,29.85,WSW,245,6.0,11.0,98,0.00,CLR,,0.00,WeatherDisplay:10.37,2013-06-07 12:43:00,
2013-06-07 05:58:00,52.9,52.3,29.85,SW,222,5.0,8.0,98,0.00,CLR,,0.00,WeatherDisplay:10.37,2013-06-07 12:58:00,
2013-06-07 06:13:00,53.1,52.5,29.85,SW,226,5.0,9.0,98,0.00,CLR,,0.00,WeatherDisplay:10.37,2013-06-07 13:13:00,
2013-06-07 06:28:00,53.1,52.5,29.85,SW,214,3.0,8.0,98,0.00,CLR,,0.00,WeatherDisplay:10.37,2013-06-07 13:28:00,
2013-06-07 06:43:00,53.4,52.9,29.85,SSW,195,5.0,8.0,98,0.00,CLR,,0.00,WeatherDisplay:10.37,2013-06-07 13:43:00,
2013-06-07 06:59:00,53.4,52.9,29.85,SSW,206,1.0,6.0,98,0.00,CLR,,0.00,WeatherDisplay:10.37,2013-06-07 13:59:00,
2013-06-07 07:13:00,53.6,53.0,29.85,SSW,202,3.0,7.0,98,0.00,CLR,,0.00,WeatherDisplay:10.37,2013-06-07 14:13:00,
2013-06-07 07:28:00,54.0,53.4,29.85,South,190,3.0,7.0,98,0.00,CLR,,0.00,WeatherDisplay:10.37,2013-06-07 14:28:00,
2013-06-07 07:43:00,54.3,53.8,29.85,SW,215,1.0,8.0,98,0.00,CLR,,0.00,WeatherDisplay:10.37,2013-06-07 14:43:00,
2013-06-07 07:59:00,54.9,54.3,29.85,SSW,201,5.0,7.0,98,0.00,CLR,,0.00,WeatherDisplay:10.37,2013-06-07 14:59:00,
2013-06-07 08:13:00,55.4,54.8,29.85,SSW,202,3.0,6.0,98,0.00,CLR,,0.00,WeatherDisplay:10.37,2013-06-07 15:13:00,
2013-06-07 08:28:00,55.9,55.4,29.85,SSW,210,3.0,6.0,98,0.00,CLR,,0.00,WeatherDisplay:10.37,2013-06-07 15:28:00,
2013-06-07 08:43:00,56.5,56.0,29.85,SSW,210,2.0,7.0,98,0.00,CLR,,0.00,WeatherDisplay:10.37,2013-06-07 15:43:00,
2013-06-07 08:59:00,57.2,56.7,29.85,SW,221,3.0,6.0,98,0.00,CLR,,0.00,WeatherDisplay:10.37,2013-06-07 15:59:00,
2013-06-07 09:13:00,58.5,57.9,29.85,SSW,213,2.0,5.0,98,0.00,CLR,,0.00,WeatherDisplay:10.37,2013-06-07 16:13:00,
2013-06-07 09:28:00,59.2,58.6,29.85,SW,215,3.0,6.0,98,0.00,CLR,,0.00,WeatherDisplay:10.37,2013-06-07 16:28:00,
2013-06-07 09:43:00,59.4,58.8,29.85,WSW,250,3.0,6.0,98,0.00,CLR,,0.00,WeatherDisplay:10.37,2013-06-07 16:43:00,
2013-06-07 09:59:00,60.6,60.1,29.85,WSW,249,5.0,6.0,98,0.00,CLR,,0.00,WeatherDisplay:10.37,2013-06-07 16:59:00,
2013-06-07 10:14:00,61.7,61.2,29.85,SW,226,5.0,6.0,98,0.00,CLR,,0.00,WeatherDisplay:10.37,2013-06-07 17:14:00,
2013-06-07 10:29:00,61.9,61.3,29.85,WSW,248,5.0,7.0,98,0.00,CLR,,0.00,WeatherDisplay:10.37,2013-06-07 17:29:00,
2013-06-07 10:44:00,62.8,62.2,29.85,WSW,248,6.0,7.0,98,0.00,CLR,,0.00,WeatherDisplay:10.37,2013-06-07 17:44:00,
2013-06-07 11:14:00,64.9,64.4,29.85,West,264,5.0,7.0,98,0.00,CLR,,0.00,WeatherDisplay:10.37,2013-06-07 18:14:00,
2013-06-07 11:29:00,65.3,64.5,29.85,West,263,5.0,8.0,97,0.00,CLR,,0.00,WeatherDisplay:10.37,2013-06-07 18:29:00,
2013-06-07 11:44:00,65.6,64.2,29.85,West,271,5.0,7.0,95,0.00,CLR,,0.00,WeatherDisplay:10.37,2013-06-07 18:44:00,
2013-06-07 12:29:00,66.8,64.4,29.85,West,266,3.0,7.0,92,0.00,CLR,,0.00,WeatherDisplay:10.37,2013-06-07 19:29:00,
2013-06-07 12:44:00,66.5,64.4,29.85,West,265,5.0,8.0,93,0.00,CLR,,0.00,WeatherDisplay:10.37,2013-06-07 19:44:00,
2013-06-07 12:59:00,66.9,64.8,29.85,West,274,5.0,8.0,93,0.00,CLR,,0.00,WeatherDisplay:10.37,2013-06-07 19:59:00,
2013-06-07 13:14:00,66.7,64.3,29.85,WNW,282,5.0,8.0,92,0.00,CLR,,0.00,WeatherDisplay:10.37,2013-06-07 20:14:00,
2013-06-07 13:29:00,66.3,63.9,29.83,West,279,6.0,9.0,92,0.00,CLR,,0.00,WeatherDisplay:10.37,2013-06-07 20:29:00,
2013-06-07 13:44:00,66.0,63.6,29.85,WNW,289,6.0,9.0,92,0.00,CLR,,0.00,WeatherDisplay:10.37,2013-06-07 20:44:00,
2013-06-07 13:59:00,67.9,65.2,29.83,West,276,5.0,9.0,91,0.00,CLR,,0.00,WeatherDisplay:10.37,2013-06-07 20:59:00,
2013-06-07 14:29:00,67.5,64.2,29.83,West,263,6.0,9.0,89,0.00,CLR,,0.00,WeatherDisplay:10.37,2013-06-07 21:29:00,
2013-06-07 14:44:00,67.1,63.7,29.83,West,261,6.0,9.0,89,0.00,CLR,,0.00,WeatherDisplay:10.37,2013-06-07 21:44:00,
2013-06-07 14:59:00,68.2,64.8,29.80,West,266,6.0,9.0,89,0.00,CLR,,0.00,WeatherDisplay:10.37,2013-06-07 21:59:00,
2013-06-07 15:14:00,66.9,63.9,29.80,WSW,249,6.0,8.0,90,0.00,CLR,,0.00,WeatherDisplay:10.37,2013-06-07 22:14:00,
2013-06-07 15:44:00,66.1,63.7,29.80,West,260,6.0,9.0,92,0.00,CLR,,0.00,WeatherDisplay:10.37,2013-06-07 22:44:00,
2013-06-07 15:59:00,65.3,63.2,29.80,West,271,6.0,9.0,93,0.00,CLR,,0.00,WeatherDisplay:10.37,2013-06-07 22:59:00,
2013-06-07 16:14:00,63.5,62.0,29.80,West,271,6.0,10.0,95,0.00,CLR,,0.00,WeatherDisplay:10.37,2013-06-07 23:14:00,
2013-06-07 16:29:00,63.5,62.3,29.77,WSW,252,6.0,8.0,96,0.00,CLR,,0.00,WeatherDisplay:10.37,2013-06-07 23:29:00,
2013-06-07 16:44:00,63.1,61.9,29.77,West,264,6.0,10.0,96,0.00,CLR,,0.00,WeatherDisplay:10.37,2013-06-07 23:44:00,
2013-06-07 16:59:00,62.4,61.6,29.77,WSW,243,6.0,9.0,97,0.00,CLR,,0.00,WeatherDisplay:10.37,2013-06-07 23:59:00,
2013-06-07 17:14:00,61.7,61.1,29.77,WSW,243,6.0,10.0,98,0.00,CLR,,0.00,WeatherDisplay:10.37,2013-06-08 00:14:00,
2013-06-07 17:29:00,60.7,60.2,29.77,WSW,255,7.0,9.0,98,0.00,CLR,,0.00,WeatherDisplay:10.37,2013-06-08 00:29:00,
2013-06-07 17:44:00,60.3,59.7,29.77,SW,226,7.0,10.0,98,0.00,CLR,,0.00,WeatherDisplay:10.37,2013-06-08 00:44:00,
2013-06-07 17:59:00,59.4,58.9,29.77,SW,236,6.0,10.0,98,0.00,CLR,,0.00,WeatherDisplay:10.37,2013-06-08 00:59:00,
2013-06-07 18:29:00,58.3,57.7,29.77,SW,228,7.0,10.0,98,0.00,CLR,,0.00,WeatherDisplay:10.37,2013-06-08 01:29:00,
2013-06-07 18:44:00,58.5,57.9,29.77,SSW,212,3.0,8.0,98,0.00,CLR,,0.00,WeatherDisplay:10.37,2013-06-08 01:44:00,
2013-06-07 18:59:00,57.9,57.4,29.77,SW,223,5.0,7.0,98,0.00,CLR,,0.00,WeatherDisplay:10.37,2013-06-08 01:59:00,
2013-06-07 19:14:00,57.9,57.4,29.77,SSW,213,3.0,7.0,98,0.00,CLR,,0.00,WeatherDisplay:10.37,2013-06-08 02:14:00,
2013-06-07 19:29:00,57.4,56.8,29.74,SSW,208,5.0,7.0,98,0.00,CLR,,0.00,WeatherDisplay:10.37,2013-06-08 02:29:00,
2013-06-07 19:44:00,56.8,56.3,29.77,SSW,207,5.0,7.0,98,0.00,CLR,,0.00,WeatherDisplay:10.37,2013-06-08 02:44:00,
2013-06-07 21:14:00,55.2,54.7,29.74,SW,217,5.0,7.0,98,0.00,CLR,,0.00,WeatherDisplay:10.37,2013-06-08 04:14:00,
2013-06-07 21:29:00,55.0,54.5,29.77,SSW,208,5.0,7.0,98,0.00,CLR,,0.00,WeatherDisplay:10.37,2013-06-08 04:29:00,
2013-06-07 21:44:00,55.0,54.5,29.74,SSW,202,5.0,7.0,98,0.00,CLR,,0.00,WeatherDisplay:10.37,2013-06-08 04:44:00,
2013-06-07 21:59:00,55.2,54.7,29.74,SSW,200,5.0,7.0,98,0.00,CLR,,0.00,WeatherDisplay:10.37,2013-06-08 04:59:00,
2013-06-07 22:14:00,55.3,54.8,29.77,SSW,202,3.0,7.0,98,0.00,CLR,,0.00,WeatherDisplay:10.37,2013-06-08 05:14:00,
2013-06-07 22:29:00,55.0,54.5,29.77,SSW,206,5.0,6.0,98,0.00,CLR,,0.00,WeatherDisplay:10.37,2013-06-08 05:29:00,
2013-06-07 22:44:00,54.9,54.3,29.77,SSW,211,3.0,8.0,98,0.00,CLR,,0.00,WeatherDisplay:10.37,2013-06-08 05:44:00,
2013-06-07 22:59:00,54.7,54.1,29.77,SSW,203,5.0,7.0,98,0.00,CLR,,0.00,WeatherDisplay:10.37,2013-06-08 05:59:00,
2013-06-07 23:14:00,54.7,54.1,29.77,SSW,213,5.0,6.0,98,0.00,CLR,,0.00,WeatherDisplay:10.37,2013-06-08 06:14:00,
2013-06-07 23:29:00,54.7,54.1,29.77,SSW,196,5.0,6.0,98,0.00,CLR,,0.00,WeatherDisplay:10.37,2013-06-08 06:29:00,
2013-06-07 23:44:00,54.5,53.9,29.77,SSW,210,5.0,6.0,98,0.00,CLR,,0.00,WeatherDisplay:10.37,2013-06-08 06:44:00,
2013-06-07 23:59:00,54.5,53.9,29.77,SSW,197,5.0,6.0,98,0.00,CLR,,0.00,WeatherDisplay:10.37,2013-06-08 06:59:00,